Andrews, NC

1:17 PM EST on December 17, 2017 (GMT -0500)
Andrews

Weather History for KRHP - April, 2013

Change the Weather History Date:

Tuesday, April 9, 2013

  Actual Average (KMMI) Record (KMMI)
Temperature  
Mean Temperature 62 °F -  
Max Temperature 80 °F 67 °F 75 °F (2017)
Min Temperature 45 °F 42 °F 32 °F (2017)
Degree Days  
Heating Degree Days 2    
Growing Degree Days 12 (Base 50)    
Moisture  
Dew Point 51 °F    
Average Humidity 69    
Maximum Humidity 97    
Minimum Humidity 38    
Precipitation  
Precipitation 0.00 in - - ()
Sea Level Pressure  
Sea Level Pressure 30.16 in    
Wind  
Wind Speed 2 mph (WSW)    
Max Wind Speed 12 mph    
Max Gust Speed 20 mph    
Visibility 10 miles    
Events      
Averages and records for this station are not official NWS values.
T = Trace of Precipitation, MM = Missing Value Source: NWS Daily Summary

Daily Weather History Graph

Daily Weather History Graph

Search for Another Location

Airport or City:

Trip Planner

Search our weather history database for the weather conditions in past years. The results will help you decide how hot, cold, wet, or windy it might be!

Date:

Astronomy

Apr. 09, 2013 Rise Set
Actual Time 7:10 AM EDT 8:03 PM EDT
Civil Twilight 6:45 AM EDT 8:29 PM EDT
Nautical Twilight 6:14 AM EDT 9:00 PM EDT
Astronomical Twilight 5:43 AM EDT 9:31 PM EDT
Moon 6:31 AM EDT (4/9) 7:37 PM EDT (4/9)
Length of Visible Light 13h 44m
Length of Day
12h 52m
Waning Crescent, 1% of the Moon is Illuminated
Apr 9
Waning Crescent
Apr 10
New
Apr 18
First Quarter
Apr 25
Full
May 2
Last Quarter

Hourly Weather History & Observations

Time (EDT) Temp. Dew Point Humidity Pressure Visibility Wind Dir Wind Speed Gust Speed Precip Events Conditions
12:15 AM 51.1 °F 47.3 °F 87% 30.14 in 10.0 mi Calm Calm - N/A   Clear
12:35 AM 51.3 °F 47.8 °F 88% 30.14 in 10.0 mi Calm Calm - N/A   Clear
12:55 AM 50.7 °F 47.3 °F 88% 30.14 in 10.0 mi Calm Calm - N/A   Clear
1:15 AM 49.6 °F 47.3 °F 92% 30.14 in 10.0 mi Calm Calm - N/A   Clear
1:35 AM 50.2 °F 47.1 °F 89% 30.14 in 10.0 mi Calm Calm - N/A   Clear
2:15 AM 48.6 °F 46.0 °F 91% 30.14 in 10.0 mi Calm Calm - N/A   Clear
2:35 AM 47.5 °F 45.5 °F 93% 30.13 in 10.0 mi Calm Calm - N/A   Clear
2:55 AM 48.0 °F 46.6 °F 95% 30.13 in 10.0 mi Calm Calm - N/A   Clear
3:15 AM 47.1 °F 45.3 °F 93% 30.13 in 10.0 mi Calm Calm - N/A   Clear
3:35 AM 45.9 °F 44.4 °F 95% 30.13 in 10.0 mi Calm Calm - N/A   Clear
3:55 AM 46.2 °F 44.8 °F 95% 30.13 in 10.0 mi Calm Calm - N/A   Clear
4:15 AM 46.6 °F 45.5 °F 96% 30.14 in 10.0 mi Calm Calm - N/A   Clear
4:35 AM 47.3 °F 45.9 °F 95% 30.14 in 10.0 mi Calm Calm - N/A   Scattered Clouds
4:55 AM 46.0 °F 45.1 °F 97% 30.14 in 10.0 mi Calm Calm - N/A   Mostly Cloudy
5:15 AM 48.2 °F 46.8 °F 95% 30.14 in 10.0 mi Calm Calm - N/A   Overcast
5:35 AM 48.4 °F 47.3 °F 96% 30.15 in 10.0 mi Calm Calm - N/A   Overcast
5:55 AM 48.7 °F 47.3 °F 95% 30.15 in 10.0 mi Calm Calm - N/A   Overcast
6:15 AM 49.1 °F 47.3 °F 93% 30.16 in 10.0 mi Calm Calm - N/A   Overcast
6:35 AM 48.6 °F 47.1 °F 95% 30.16 in 10.0 mi Calm Calm - N/A   Overcast
6:55 AM 48.6 °F 47.3 °F 95% 30.17 in 10.0 mi Calm Calm - N/A   Overcast
7:15 AM 48.2 °F 46.8 °F 95% 30.18 in 10.0 mi Calm Calm - N/A   Scattered Clouds
7:35 AM 47.5 °F 46.8 °F 97% 30.19 in 7.0 mi Calm Calm - N/A   Scattered Clouds
7:55 AM 47.8 °F 46.6 °F 95% 30.20 in 7.0 mi Calm Calm - N/A   Scattered Clouds
8:15 AM 48.2 °F 46.9 °F 95% 30.20 in 10.0 mi Calm Calm - N/A   Clear
8:35 AM 49.1 °F 47.8 °F 95% 30.21 in 10.0 mi Calm Calm - N/A   Clear
8:55 AM 51.1 °F 48.9 °F 92% 30.21 in 10.0 mi Calm Calm - N/A   Mostly Cloudy
9:15 AM 53.6 °F 50.7 °F 90% 30.21 in 10.0 mi Calm Calm - N/A   Overcast
9:35 AM 57.4 °F 52.3 °F 83% 30.21 in 10.0 mi Calm Calm - N/A   Mostly Cloudy
9:55 AM 61.3 °F 53.4 °F 75% 30.20 in 10.0 mi Calm Calm - N/A   Scattered Clouds
10:15 AM 64.8 °F 54.0 °F 68% 30.20 in 10.0 mi Calm Calm - N/A   Clear
10:35 AM 66.9 °F 54.7 °F 65% 30.21 in 10.0 mi Calm Calm - N/A   Clear
10:55 AM 68.7 °F 55.4 °F 62% 30.21 in 10.0 mi Calm Calm - N/A   Clear
11:15 AM 70.7 °F 54.9 °F 57% 30.21 in 10.0 mi West 5.8 mph - N/A   Scattered Clouds
11:35 AM 72.5 °F 56.1 °F 56% 30.21 in 10.0 mi West 11.5 mph 19.6 mph N/A   Scattered Clouds
11:55 AM 73.4 °F 54.5 °F 51% 30.21 in 10.0 mi WSW 6.9 mph 16.1 mph N/A   Scattered Clouds
12:15 PM 73.6 °F 54.5 °F 51% 30.21 in 10.0 mi SW 9.2 mph - N/A   Clear
12:35 PM 74.5 °F 55.6 °F 52% 30.20 in 10.0 mi West 9.2 mph 19.6 mph N/A   Clear
12:55 PM 77.5 °F 55.2 °F 46% 30.20 in 10.0 mi SW 8.1 mph - N/A   Mostly Cloudy
1:15 PM 77.4 °F 53.6 °F 44% 30.20 in 10.0 mi West 9.2 mph - N/A   Mostly Cloudy
1:35 PM 76.5 °F 55.8 °F 49% 30.19 in 10.0 mi WNW 5.8 mph - N/A   Mostly Cloudy
1:55 PM 78.1 °F 53.2 °F 42% 30.18 in 10.0 mi SSW 8.1 mph - N/A   Mostly Cloudy
2:15 PM 78.3 °F 53.1 °F 41% 30.17 in 10.0 mi WSW 8.1 mph 17.3 mph N/A   Mostly Cloudy
2:35 PM 79.5 °F 52.7 °F 39% 30.16 in 10.0 mi SW 9.2 mph - N/A   Scattered Clouds
2:55 PM 78.6 °F 54.3 °F 43% 30.16 in 10.0 mi West 10.4 mph - N/A   Scattered Clouds
3:15 PM 79.3 °F 52.5 °F 39% 30.15 in 10.0 mi WSW 3.5 mph - N/A   Clear
3:35 PM 77.7 °F 51.8 °F 40% 30.15 in 10.0 mi West 11.5 mph 18.4 mph N/A   Clear
3:55 PM 77.4 °F 53.1 °F 43% 30.14 in 10.0 mi West 10.4 mph 17.3 mph N/A   Clear
4:15 PM 79.9 °F 51.8 °F 38% 30.13 in 10.0 mi West 6.9 mph - N/A   Scattered Clouds
4:35 PM 78.4 °F 52.9 °F 41% 30.13 in 10.0 mi WSW 11.5 mph 17.3 mph N/A   Scattered Clouds
4:55 PM 80.1 °F 52.5 °F 38% 30.12 in 10.0 mi WSW 9.2 mph 17.3 mph N/A   Scattered Clouds
5:15 PM 77.5 °F 51.1 °F 40% 30.12 in 10.0 mi SW 6.9 mph 16.1 mph N/A   Clear
5:35 PM 77.0 °F 53.8 °F 44% 30.12 in 10.0 mi WSW 6.9 mph - N/A   Mostly Cloudy
5:55 PM 77.2 °F 52.2 °F 42% 30.11 in 10.0 mi WSW 5.8 mph - N/A   Scattered Clouds
6:15 PM 77.0 °F 52.9 °F 43% 30.12 in 10.0 mi SSW 3.5 mph - N/A   Scattered Clouds
6:35 PM 77.5 °F 53.4 °F 43% 30.12 in 10.0 mi West 8.1 mph - N/A   Mostly Cloudy
6:55 PM 75.9 °F 52.5 °F 44% 30.12 in 10.0 mi SW 9.2 mph - N/A   Overcast
7:15 PM 75.4 °F 52.9 °F 45% 30.12 in 10.0 mi SW 8.1 mph - N/A   Mostly Cloudy
7:35 PM 75.2 °F 52.2 °F 44% 30.12 in 10.0 mi SW 6.9 mph - N/A   Scattered Clouds
7:55 PM 73.8 °F 51.8 °F 46% 30.11 in 7.0 mi SSW 5.8 mph - N/A   Scattered Clouds
8:15 PM 72.0 °F 52.0 °F 49% 30.11 in 7.0 mi SSW 3.5 mph - N/A   Scattered Clouds
8:35 PM 69.6 °F 52.3 °F 54% 30.11 in 10.0 mi Calm Calm - N/A   Mostly Cloudy
8:55 PM 70.7 °F 51.8 °F 51% 30.10 in 10.0 mi Calm Calm - N/A   Scattered Clouds
9:15 PM 63.9 °F 52.2 °F 66% 30.11 in 10.0 mi Calm Calm - N/A   Mostly Cloudy
9:35 PM 62.6 °F 52.2 °F 69% 30.12 in 10.0 mi Calm Calm - N/A   Scattered Clouds
9:55 PM 63.3 °F 51.8 °F 66% 30.14 in 10.0 mi Calm Calm - N/A   Clear
10:15 PM 63.0 °F 51.6 °F 66% 30.15 in 10.0 mi Calm Calm - N/A   Clear
10:55 PM 58.6 °F 51.6 °F 77% 30.16 in 10.0 mi Calm Calm - N/A   Clear
11:15 PM 59.0 °F 50.9 °F 74% 30.16 in 10.0 mi Calm Calm - N/A   Clear
11:35 PM 55.9 °F 50.5 °F 82% 30.15 in 10.0 mi Calm Calm - N/A   Clear
11:55 PM 55.6 °F 50.5 °F 83% 30.16 in 10.0 mi Calm Calm - N/A   Clear